Weather History for Texarkana, AR

Change the Weather History Date:

Saturday, April 26, 2014

  Actual Average Record
Temperature  
Mean Temperature 73 °F 67 °F  
Max Temperature 86 °F 78 °F 90 °F (1939)
Min Temperature 59 °F 56 °F 38 °F (1992)
Degree Days  
Heating Degree Days 0 2  
Month to date heating degree days 134 103  
Since 1 July heating degree days 2996 2597  
Cooling Degree Days 8 3  
Month to date cooling degree days 56 59  
Year to date cooling degree days 63 82  
Growing Degree Days 22 (Base 50)    
Moisture  
Dew Point 56 °F    
Average Humidity 63    
Maximum Humidity 79    
Minimum Humidity 47    
Precipitation  
Precipitation 0.00 in 0.16 in 5.09 in (1958)
Month to date precipitation 2.29 3.35  
Year to date precipitation 9.52 14.94  
Snow  
Snow 0.00 in - - ()
Month to date snowfall 0.0  
Since 1 July snowfall 1.7  
Snow Depth 0.00 in    
Sea Level Pressure  
Sea Level Pressure 29.84 in    
Wind  
Wind Speed 10 mph (SSE)    
Max Wind Speed 16 mph    
Max Gust Speed 23 mph    
Visibility 10 miles    
Events      
T = Trace of Precipitation, MM = Missing Value Source: NWS Daily Summary

Daily Weather History Graph

Daily Weather History Graph

Search for Another Location

Airport:

Trip Planner

Search our weather history database for the weather conditions in past years. The results will help you decide how hot, cold, wet, or windy it might be!

Date:

Astronomy

Apr. 26, 2014 Rise Set
Actual Time 6:32 AM CDT 7:55 PM CDT
Civil Twilight 6:06 AM CDT 8:21 PM CDT
Nautical Twilight 5:35 AM CDT 8:52 PM CDT
Astronomical Twilight 5:02 AM CDT 9:25 PM CDT
Moon 4:48 AM CDT (4/26) 5:31 PM CDT (4/26)
Length of Visible Light 14h 14m
Length of Day
13h 22m
Waning Crescent, 8% of the Moon is Illuminated
Apr 26
Waning Crescent
Apr 29
New
May 6
First Quarter
May 14
Full
May 21
Last Quarter

Hourly Weather History & Observations

Time (CDT) Temp. Heat Index Dew Point Humidity Pressure Visibility Wind Dir Wind Speed Gust Speed Precip Events Conditions
12:53 AM 60.1 °F - 43.0 °F 53% 29.94 in 10.0 mi SSE 5.8 mph - N/A   Clear
1:53 AM 59.0 °F - 43.0 °F 55% 29.92 in 10.0 mi SSE 5.8 mph - N/A   Clear
2:53 AM 60.1 °F - 43.0 °F 53% 29.90 in 10.0 mi SE 6.9 mph - N/A   Clear
3:53 AM 59.0 °F - 43.0 °F 55% 29.89 in 10.0 mi SSE 9.2 mph - N/A   Clear
4:53 AM 61.0 °F - 43.0 °F 52% 29.88 in 10.0 mi SSE 8.1 mph - N/A   Clear
5:53 AM 61.0 °F - 44.1 °F 54% 29.88 in 10.0 mi SSE 9.2 mph - N/A   Clear
6:53 AM 59.0 °F - 44.1 °F 58% 29.89 in 10.0 mi SE 8.1 mph - N/A   Clear
7:53 AM 63.0 °F - 46.9 °F 56% 29.90 in 10.0 mi SSE 8.1 mph - N/A   Clear
8:53 AM 66.9 °F - 48.0 °F 51% 29.90 in 10.0 mi SSE 9.2 mph - N/A   Clear
9:53 AM 71.1 °F - 52.0 °F 51% 29.90 in 10.0 mi South 6.9 mph - N/A   Clear
10:53 AM 75.0 °F - 55.9 °F 51% 29.89 in 10.0 mi SE 5.8 mph - N/A   Clear
11:53 AM 79.0 °F - 60.1 °F 52% 29.88 in 10.0 mi SSE 11.5 mph - N/A   Clear
12:53 PM 81.0 °F 81.6 °F 60.1 °F 49% 29.86 in 10.0 mi SSE 10.4 mph - N/A   Clear
1:53 PM 82.9 °F 83.2 °F 60.1 °F 46% 29.83 in 10.0 mi SSE 10.4 mph - N/A   Clear
2:53 PM 84.9 °F 85.4 °F 62.1 °F 46% 29.81 in 10.0 mi SE 12.7 mph - N/A   Clear
3:53 PM 86.0 °F 87.3 °F 64.0 °F 48% 29.78 in 10.0 mi SSE 17.3 mph 20.7 mph N/A   Clear
4:53 PM 84.0 °F 85.4 °F 64.0 °F 51% 29.76 in 10.0 mi South 13.8 mph 23.0 mph N/A   Scattered Clouds
5:53 PM 82.9 °F 84.6 °F 64.9 °F 54% 29.76 in 10.0 mi SSE 11.5 mph - N/A   Scattered Clouds
6:53 PM 81.0 °F 83.0 °F 66.0 °F 60% 29.75 in 10.0 mi SSE 12.7 mph - N/A   Clear
7:53 PM 78.1 °F - 66.0 °F 66% 29.75 in 10.0 mi SSE 8.1 mph - N/A   Clear
8:53 PM 77.0 °F - 64.9 °F 66% 29.75 in 10.0 mi SSE 8.1 mph - N/A   Mostly Cloudy
9:53 PM 77.0 °F - 66.0 °F 69% 29.75 in 10.0 mi SSE 9.2 mph - N/A   Mostly Cloudy
10:53 PM 75.9 °F - 66.0 °F 71% 29.75 in 10.0 mi SSE 9.2 mph - N/A   Clear
11:53 PM 73.9 °F - 66.0 °F 76% 29.73 in 10.0 mi South 13.8 mph - N/A   Clear